Big Rapids, MI

1:59 PM EST on November 22, 2019 (GMT -0500)
Roben-Hood

Weather History for KRQB - September, 2019

Change the Weather History Date:

Saturday, September 21, 2019

  Actual Average Record
Temperature  
Mean Temperature 70 °F -  
Max Temperature 82 °F 64 °F 87 °F (2017)
Min Temperature 59 °F 44 °F 29 °F (1991)
Cooling Degree Days 6    
Growing Degree Days 20 (Base 50)    
Moisture  
Dew Point 65 °F    
Average Humidity 83    
Maximum Humidity 97    
Minimum Humidity 59    
Precipitation  
Precipitation 0.08 in - - ()
Sea Level Pressure  
Sea Level Pressure 30.09 in    
Wind  
Wind Speed 4 mph (SSW)    
Max Wind Speed 15 mph    
Max Gust Speed 25 mph    
Visibility 8 miles    
Events Rain    
Averages and records for this station are not official NWS values.
T = Trace of Precipitation, MM = Missing Value Source: NWS Daily Summary

Daily Weather History Graph

Daily Weather History Graph

Search for Another Location

Airport or City:

Astronomy

Sep. 21, 2019 Rise Set
Actual Time 7:27 AM EDT 7:41 PM EDT
Civil Twilight 6:59 AM EDT 8:10 PM EDT
Nautical Twilight 6:25 AM EDT 8:43 PM EDT
Astronomical Twilight 5:50 AM EDT 9:18 PM EDT
Moon No Moon Rise 2:45 PM EDT (9/21)
Length of Visible Light 13h 11m
Length of Day
12h 13m
Waning Gibbous, 55% of the Moon is Illuminated
Sep 21
Waning Gibbous
Sep 21
Last Quarter
Sep 28
New
Oct 5
First Quarter
Oct 13
Full

Hourly Weather History & Observations

Time (EDT) Temp. Heat Index Dew Point Humidity Pressure Visibility Wind Dir Wind Speed Gust Speed Precip Events Conditions
12:15 AM 65.1 °F - 63.7 °F 95% 30.14 in 10.0 mi Calm Calm - N/A   Clear
12:16 AM 65.1 °F - 63.5 °F 94% 30.14 in 10.0 mi Calm Calm - N/A   Clear
12:35 AM 63.7 °F - 62.2 °F 95% 30.14 in 7.0 mi Calm Calm - N/A   Clear
12:58 AM 63.5 °F - 62.4 °F 96% 30.14 in 7.0 mi Calm Calm - N/A   Clear
1:16 AM 63.3 °F - 61.7 °F 94% 30.14 in 7.0 mi Calm Calm - N/A   Scattered Clouds
1:35 AM 62.6 °F - 61.2 °F 95% 30.14 in 2.0 mi East 3.5 mph - N/A   Mostly Cloudy
1:36 AM 62.6 °F - 61.2 °F 95% 30.14 in 3.0 mi ENE 3.5 mph - N/A   Mostly Cloudy
1:59 AM 62.6 °F - 61.3 °F 96% 30.14 in 10.0 mi NE 3.5 mph - N/A   Scattered Clouds
2:16 AM 62.2 °F - 61.0 °F 96% 30.14 in 10.0 mi Calm Calm - N/A   Scattered Clouds
2:35 AM 61.3 °F - 60.1 °F 96% 30.14 in 3.0 mi Calm Calm - N/A   Scattered Clouds
2:36 AM 61.2 °F - 60.1 °F 96% 30.14 in 2.5 mi Calm Calm - N/A   Scattered Clouds
2:59 AM 61.3 °F - 60.3 °F 96% 30.14 in 0.8 mi Calm Calm - N/A   Overcast
3:16 AM 61.7 °F - 60.8 °F 97% 30.13 in 7.0 mi Calm Calm - N/A   Mostly Cloudy
3:35 AM 61.3 °F - 60.4 °F 97% 30.13 in 4.0 mi Calm Calm - N/A   Mostly Cloudy
3:36 AM 61.5 °F - 60.6 °F 97% 30.13 in 4.0 mi Calm Calm - N/A   Mostly Cloudy
3:55 AM 61.0 °F - 60.1 °F 97% 30.13 in 5.0 mi Calm Calm - N/A   Overcast
4:00 AM 62.2 °F - 61.3 °F 97% 30.13 in 3.0 mi Calm Calm - N/A   Overcast
4:17 AM 62.1 °F - 61.0 °F 96% 30.13 in 0.8 mi Calm Calm - N/A   Overcast
4:35 AM 61.2 °F - 60.1 °F 96% 30.13 in 1.5 mi Calm Calm - N/A   Overcast
4:36 AM 61.0 °F - 59.9 °F 96% 30.13 in 2.0 mi Calm Calm - N/A   Overcast
4:55 AM 60.6 °F - 59.5 °F 96% 30.13 in 5.0 mi Calm Calm - N/A   Scattered Clouds
5:18 AM 60.8 °F - 59.9 °F 97% 30.13 in 7.0 mi Calm Calm - N/A   Scattered Clouds
5:36 AM 60.3 °F - 59.2 °F 96% 30.14 in 7.0 mi Calm Calm - N/A   Mostly Cloudy
5:55 AM 61.0 °F - 59.9 °F 96% 30.14 in 7.0 mi Calm Calm - N/A   Overcast
5:56 AM 61.0 °F - 59.9 °F 96% 30.14 in 7.0 mi Calm Calm - N/A   Overcast
6:19 AM 60.8 °F - 59.9 °F 97% 30.13 in 5.0 mi Calm Calm - N/A   Scattered Clouds
6:36 AM 60.8 °F - 59.9 °F 97% 30.13 in 5.0 mi Calm Calm - N/A   Scattered Clouds
6:55 AM 60.6 °F - 59.7 °F 97% 30.13 in 5.0 mi Calm Calm - N/A   Clear
6:56 AM 60.6 °F - 59.7 °F 97% 30.13 in 7.0 mi Calm Calm - N/A   Clear
7:15 AM 60.1 °F - 59.2 °F 97% 30.13 in 7.0 mi Calm Calm - N/A   Clear
7:19 AM 59.9 °F - 59.0 °F 97% 30.13 in 7.0 mi Calm Calm - N/A   Clear
7:37 AM 60.8 °F - 59.9 °F 97% 30.13 in 7.0 mi Calm Calm - N/A   Clear
7:55 AM 60.3 °F - 59.2 °F 96% 30.13 in 5.0 mi Calm Calm - N/A   Clear
7:56 AM 60.3 °F - 59.2 °F 96% 30.13 in 5.0 mi Calm Calm - N/A   Clear
8:15 AM 60.3 °F - 59.4 °F 97% 30.13 in 4.0 mi Calm Calm - N/A   Clear
8:38 AM 61.5 °F - 60.6 °F 97% 30.13 in 7.0 mi Calm Calm - N/A   Scattered Clouds
8:55 AM 63.0 °F - 61.9 °F 96% 30.13 in 7.0 mi Calm Calm - N/A   Scattered Clouds
8:56 AM 63.0 °F - 61.9 °F 96% 30.13 in 10.0 mi Calm Calm - N/A   Clear
9:15 AM 64.8 °F - 63.3 °F 95% 30.12 in 10.0 mi South 5.8 mph - N/A   Clear
9:38 AM 68.0 °F - 65.3 °F 91% 30.12 in 10.0 mi South 4.6 mph - N/A   Clear
9:55 AM 72.3 °F - 67.1 °F 84% 30.12 in 10.0 mi SSE 8.1 mph - N/A   Clear
9:56 AM 72.5 °F - 67.1 °F 83% 30.12 in 10.0 mi South 8.1 mph - N/A   Clear
10:15 AM 74.1 °F - 67.1 °F 79% 30.12 in 10.0 mi SSW 11.5 mph - N/A   Clear
10:16 AM 74.3 °F - 67.1 °F 78% 30.12 in 10.0 mi SSW 11.5 mph - N/A   Clear
10:39 AM 75.6 °F - 67.1 °F 75% 30.12 in 10.0 mi South 10.4 mph 16.1 mph N/A   Clear
10:56 AM 77.0 °F - 68.0 °F 74% 30.11 in 10.0 mi South 8.1 mph - N/A   Clear
11:15 AM 77.9 °F - 68.4 °F 72% 30.11 in 10.0 mi SSE 6.9 mph - N/A   Clear
11:16 AM 77.9 °F - 68.5 °F 73% 30.11 in 10.0 mi SSE 5.8 mph - N/A   Clear
11:35 AM 78.8 °F - 68.4 °F 70% 30.10 in 10.0 mi SSW 6.9 mph 16.1 mph N/A   Clear
11:39 AM 79.2 °F - 68.5 °F 70% 30.10 in 10.0 mi South 8.1 mph - N/A   Clear
11:56 AM 80.6 °F 83.4 °F 68.4 °F 66% 30.10 in 10.0 mi South 5.8 mph - N/A   Clear
12:15 PM 81.3 °F 84.0 °F 67.6 °F 63% 30.10 in 10.0 mi SSW 8.1 mph 18.4 mph N/A   Scattered Clouds
12:16 PM 81.3 °F 84.0 °F 67.8 °F 63% 30.10 in 10.0 mi South 5.8 mph 18.4 mph N/A   Scattered Clouds
12:35 PM 81.9 °F 84.6 °F 67.8 °F 62% 30.09 in 10.0 mi SW 9.2 mph 16.1 mph N/A   Mostly Cloudy
12:39 PM 81.7 °F 84.5 °F 68.0 °F 63% 30.09 in 10.0 mi WSW 10.4 mph - N/A   Mostly Cloudy
12:56 PM 80.8 °F 83.3 °F 67.5 °F 64% 30.09 in 10.0 mi SW 12.7 mph 23.0 mph N/A   Overcast
1:15 PM 81.7 °F 84.3 °F 67.5 °F 62% 30.09 in 10.0 mi SW 10.4 mph 19.6 mph N/A   Overcast
1:16 PM 81.5 °F 84.1 °F 67.5 °F 62% 30.09 in 10.0 mi SW 11.5 mph 19.6 mph N/A   Overcast
1:35 PM 81.1 °F 84.0 °F 68.2 °F 65% 30.09 in 10.0 mi SW 10.4 mph 17.3 mph N/A   Mostly Cloudy
1:40 PM 82.0 °F 84.5 °F 67.1 °F 60% 30.09 in 10.0 mi SW 15.0 mph 20.7 mph N/A   Mostly Cloudy
1:57 PM 80.4 °F 82.6 °F 66.4 °F 62% 30.09 in 10.0 mi SW 15.0 mph 24.2 mph N/A   Mostly Cloudy
2:15 PM 81.5 °F 83.9 °F 66.9 °F 61% 30.08 in 10.0 mi WSW 9.2 mph 20.7 mph N/A   Mostly Cloudy
2:16 PM 81.7 °F 84.2 °F 67.1 °F 61% 30.08 in 10.0 mi WSW 12.7 mph 23.0 mph N/A   Mostly Cloudy
2:35 PM 81.7 °F 83.8 °F 66.0 °F 59% 30.08 in 10.0 mi SW 12.7 mph 25.3 mph N/A   Overcast
2:36 PM 81.7 °F 83.8 °F 66.2 °F 59% 30.08 in 10.0 mi SW 11.5 mph 25.3 mph N/A   Mostly Cloudy
2:57 PM 79.0 °F - 66.0 °F 64% 30.08 in 10.0 mi WSW 12.7 mph 24.2 mph N/A   Overcast
3:15 PM 79.2 °F - 66.0 °F 64% 30.07 in 10.0 mi SW 13.8 mph 23.0 mph N/A   Mostly Cloudy
3:35 PM 78.8 °F - 66.0 °F 65% 30.07 in 10.0 mi SW 11.5 mph 20.7 mph N/A   Scattered Clouds
3:36 PM 78.8 °F - 66.0 °F 65% 30.07 in 10.0 mi SW 10.4 mph 20.7 mph N/A   Scattered Clouds
3:58 PM 78.8 °F - 66.4 °F 66% 30.06 in 10.0 mi SW 12.7 mph 21.9 mph N/A   Mostly Cloudy
4:15 PM 77.5 °F - 66.2 °F 68% 30.06 in 10.0 mi SSW 6.9 mph 17.3 mph N/A   Mostly Cloudy
4:35 PM 77.0 °F - 66.6 °F 70% 30.05 in 10.0 mi SSW 9.2 mph - N/A   Mostly Cloudy
4:59 PM 76.1 °F - 66.4 °F 72% 30.04 in 10.0 mi SSW 10.4 mph 17.3 mph N/A   Overcast
5:15 PM 75.9 °F - 66.6 °F 73% 30.04 in 10.0 mi SSW 9.2 mph - N/A   Overcast
5:36 PM 76.1 °F - 66.6 °F 72% 30.04 in 10.0 mi SSW 8.1 mph 16.1 mph N/A   Overcast
5:55 PM 76.1 °F - 66.6 °F 72% 30.03 in 10.0 mi SW 9.2 mph 16.1 mph N/A   Overcast
6:00 PM 76.1 °F - 66.7 °F 73% 30.03 in 10.0 mi SSW 10.4 mph 16.1 mph N/A   Overcast
6:17 PM 75.7 °F - 66.6 °F 73% 30.03 in 10.0 mi SSW 6.9 mph 16.1 mph N/A   Overcast
6:35 PM 75.2 °F - 66.9 °F 75% 30.03 in 10.0 mi SSW 12.7 mph - N/A   Overcast
6:36 PM 75.2 °F - 67.1 °F 76% 30.03 in 10.0 mi SSW 10.4 mph - N/A   Overcast
6:55 PM 74.5 °F - 67.3 °F 78% 30.03 in 10.0 mi WSW 4.6 mph - N/A Rain Rain
6:56 PM 74.5 °F - 67.3 °F 78% 30.03 in 10.0 mi WSW 4.6 mph - N/A Rain Light Rain
7:18 PM 72.1 °F - 68.2 °F 87% 30.02 in 10.0 mi SW 3.5 mph - 0.02 in Rain Light Rain
7:35 PM 71.8 °F - 68.5 °F 89% 30.02 in 10.0 mi Calm Calm - 0.02 in Rain Light Rain
7:55 PM 71.8 °F - 68.9 °F 91% 30.03 in 10.0 mi SSW 10.4 mph - 0.02 in   Overcast
8:19 PM 71.6 °F - 68.9 °F 91% 30.03 in 10.0 mi SSW 9.2 mph - N/A   Overcast
8:36 PM 71.6 °F - 68.9 °F 91% 30.03 in 10.0 mi SSW 8.1 mph - N/A   Overcast
8:55 PM 71.6 °F - 68.0 °F 88% 30.03 in 10.0 mi SSW 6.9 mph - N/A   Overcast
8:56 PM 71.6 °F - 68.0 °F 88% 30.03 in 10.0 mi SSW 8.1 mph - N/A   Overcast
9:19 PM 71.4 °F - 67.6 °F 88% 30.04 in 10.0 mi SW 5.8 mph - N/A   Overcast
9:36 PM 71.4 °F - 67.5 °F 87% 30.04 in 10.0 mi SW 5.8 mph - N/A   Overcast
9:55 PM 71.6 °F - 67.3 °F 86% 30.04 in 10.0 mi SW 6.9 mph - N/A Rain Light Rain
9:56 PM 71.6 °F - 67.3 °F 86% 30.04 in 10.0 mi SW 8.1 mph - 0.01 in Rain Heavy Rain
10:15 PM 70.7 °F - 67.5 °F 89% 30.04 in 10.0 mi SSW 10.4 mph - 0.01 in Rain Light Rain
10:20 PM 70.5 °F - 67.5 °F 90% 30.04 in 10.0 mi SSW 8.1 mph - 0.01 in Rain Light Rain
10:38 PM 70.2 °F - 67.6 °F 92% 30.03 in 10.0 mi SSW 6.9 mph - 0.02 in Rain Rain
10:55 PM 70.2 °F - 67.8 °F 92% 30.03 in 10.0 mi SSW 9.2 mph - 0.02 in Rain Light Rain
11:15 PM 70.0 °F - 68.0 °F 93% 30.02 in 7.0 mi South 8.1 mph - 0.01 in Rain Light Rain
11:55 PM 69.8 °F - 68.0 °F 94% 30.01 in 10.0 mi SSW 6.9 mph - 0.03 in Rain Light Rain